Flag for U.S.A. Weather past 2 weeks in Wilmington, North Carolina, U.S.A.

Now
46 °F

Light rain. Overcast.


Feels Like: 42 °F
Forecast: 42 / 59 °F
Wind: 8 mph from East

Location: New Hanover International Airport

Current Time: Mar 3, 2015 at 2:23:02 PM

Latest Report: Mar 3, 2015 at 1:53 PM


Visibility: 7 mi

Pressure: 30.26 "Hg

Humidity: 73%

Dew point: 38 °F

Location of WilmingtonLocation

Historic Weather in Wilmington — Graph

°F

Wilmington temperature yesterday

Maximum temperature yesterday: 63 °F (at 2:53 PM)
Minimum temperature yesterday: 42 °F (at 12:00 AM)
Average temperature yesterday: 49 °F

Past Weeks' High & Low Weather Summary

 TemperatureHumidityPressure
High67 °F (Feb 22, 12:53 PM)100% (Feb 22, 5:53 AM)30.70 "Hg (Feb 22, 5:53 AM)
Low13 °F (Feb 20, 6:53 AM)22% (Feb 20, 3:53 PM)29.50 "Hg (Feb 26, 4:53 AM)
Average39 °F74%30.19 "Hg
* Reported Feb 16 12:53 PM — Mar 3 12:53 PM, Wilmington, Weather by CustomWeather, © 2015

Note: Actual official high and low records may vary slightly from our data, if they occured in-between our weather recording intervals... More about our weather records

Advertising

Wilmington weather history for previous 24 hours

 ConditionsComfort  
Time TempWeatherWind HumidityBarometerVisibility
12:53 PM
Tue, Mar 3
46 °FMostly cloudy.6 mph71%30.29 "Hg10 mi
11:53 AM45 °FOvercast.7 mph76%30.32 "Hg10 mi
10:53 AM41 °FOvercast.8 mph82%30.34 "Hg10 mi
9:53 AM42 °FLight rain. Overcast.8 mph65%30.36 "Hg6 mi
8:53 AM42 °FOvercast.9 mph57%30.34 "Hg10 mi
7:53 AM42 °FOvercast.6 mph57%30.35 "Hg10 mi
6:53 AM41 °FLight rain. Overcast.6 mph58%30.35 "Hg10 mi
5:53 AM44 °FOvercast.15 mph41%30.33 "Hg10 mi
4:53 AM43 °FPassing clouds.16 mph51%30.32 "Hg10 mi
3:53 AM43 °FOvercast.10 mph53%30.32 "Hg10 mi
2:53 AM43 °FPassing clouds.10 mph56%30.34 "Hg10 mi
1:53 AM42 °FPassing clouds.12 mph65%30.34 "Hg10 mi
12:53 AM42 °FClear.9 mph71%30.34 "Hg10 mi
11:53 PM
Mon, Mar 2
42 °FClear.10 mph76%30.34 "Hg10 mi
10:53 PM44 °FClear.10 mph73%30.35 "Hg10 mi
9:53 PM47 °FOvercast.9 mph74%30.35 "Hg10 mi
8:53 PM48 °FOvercast.8 mph74%30.32 "Hg10 mi
7:53 PM49 °FPassing clouds.14 mph74%30.31 "Hg10 mi
6:53 PM52 °FClear.No wind83%30.27 "Hg10 mi
5:53 PM57 °FSunny.5 mph72%30.24 "Hg10 mi
4:53 PM63 °FSunny.8 mph58%30.22 "Hg10 mi
3:53 PM63 °FSunny.No wind58%30.21 "Hg10 mi
2:53 PM63 °FSunny.12 mph60%30.21 "Hg10 mi
Weather by CustomWeather, © 2015

See weather overviewHow to use our weather pages